Flag for American Samoa Weather past 2 weeks in Pago Pago, American Samoa

80 °F

Passing clouds.

Feels Like: 84 °F
Forecast: 79 / 85 °F
Wind: 10 mph from Southwest

Location: Pago Pago / Int. Airp.

Current Time: Nov 30, 2015 at 2:55:17 AM

Latest Report: Nov 30, 2015 at 1:50 AM

Visibility: 10 mi

Pressure: 29.63 "Hg

Humidity: 84%

Dew point: 74 °F

Location of Pago PagoLocation

Historic Weather in Pago Pago — Graph


Pago Pago temperature yesterday

Maximum temperature yesterday: 86 °F (at 10:50 AM)
Minimum temperature yesterday: 79 °F (at 1:52 AM)
Average temperature yesterday: 82 °F

Past Weeks' High & Low Weather Summary

High100 °F (Nov 21, 8:52 AM)96% (Nov 15, 12:50 AM)29.90 "Hg (Nov 15, 12:50 AM)
Low75 °F (Nov 15, 3:50 AM)50% (Nov 21, 8:52 AM)29.40 "Hg (Nov 28, 6:51 AM)
Average82 °F86%29.74 "Hg
* Reported Nov 15 12:50 AM — Nov 30 12:57 AM, Pago Pago, Weather by CustomWeather, © 2015

Note: Actual official high and low records may vary slightly from our data, if they occured in-between our weather recording intervals... More about our weather records


Pago Pago weather history for previous 24 hours

Time TempWeatherWind HumidityBarometerVisibility
12:57 AM
Mon, Nov 30
80 °FPartly cloudy.12 mph83%29.65 "Hg10 mi
11:50 PM
Sun, Nov 29
80 °FPartly cloudy.14 mph82%29.68 "Hg10 mi
10:52 PM81 °FPassing clouds.10 mph82%29.69 "Hg8 mi
9:53 PM81 °FPassing clouds.10 mph83%29.69 "Hg8 mi
8:51 PM81 °FPassing clouds.13 mph82%29.68 "Hg8 mi
7:51 PM81 °FPassing clouds.10 mph82%29.67 "Hg10 mi
7:00 PM81 °FMostly cloudy.8 mph83%29.65 "Hg10 mi
6:50 PM81 °FMostly cloudy.8 mph83%29.65 "Hg10 mi
5:52 PM82 °FCloudy.9 mph81%29.62 "Hg12 mi
4:53 PM83 °FScattered showers. Cloudy.12 mph80%29.62 "Hg12 mi
3:52 PM84 °FScattered showers. Cloudy.12 mph76%29.60 "Hg12 mi
2:50 PM85 °FScattered showers. Broken clouds.14 mph78%29.60 "Hg12 mi
1:53 PM84 °FBroken clouds.13 mph79%29.62 "Hg12 mi
12:53 PM84 °FSprinkles. Broken clouds.14 mph79%29.62 "Hg12 mi
11:53 AM84 °FSprinkles. Broken clouds.12 mph80%29.63 "Hg10 mi
10:50 AM86 °FBroken clouds.12 mph75%29.63 "Hg12 mi
9:53 AM85 °FPartly sunny.12 mph75%29.64 "Hg12 mi
8:52 AM83 °FBroken clouds.12 mph82%29.64 "Hg12 mi
7:52 AM83 °FBroken clouds.12 mph82%29.62 "Hg12 mi
6:52 AM81 °FBroken clouds.10 mph89%29.62 "Hg12 mi
6:00 AM80 °FPartly sunny.6 mph89%29.59 "Hg11 mi
5:50 AM80 °FPartly sunny.6 mph89%29.59 "Hg11 mi
4:55 AM80 °FPartly cloudy.9 mph89%29.57 "Hg10 mi
3:55 AM79 °FSprinkles. Overcast.12 mph90%29.56 "Hg10 mi
2:57 AM80 °FSprinkles. Partly cloudy.8 mph87%29.54 "Hg10 mi
2:00 AM79 °FSprinkles. Partly cloudy.9 mph90%29.55 "Hg10 mi
Weather by CustomWeather, © 2015

See weather overviewHow to use our weather pages